User: anonymous   Login
Location: Lawrence
(38.9720°N, 95.2350°W)
Time: 18:25:31
(UTC-06:00)
Language:

ALOS - Orbit

View from above orbital plane
View from above orbital plane
View from above satellite
View from above satellite

Ground track
Ground track

The orbit data is extracted from the following two-line orbital elements,

1 28931U 06002A   16041.86240035  .00000442  00000-0  96733-4 0  9993
2 28931  97.9024  86.3239 0002487  85.0028 275.1457 14.62116025535519
Epoch (UTC): 10 February 2016 20:41:51
Eccentricity: 0.0002487
inclination: 97.9024°
perigee height: 684 km
apogee height: 688 km
right ascension of ascending node: 86.3239°
argument of perigee: 85.0028°
revolutions per day: 14.62116025
mean anomaly at epoch: 275.1457°
orbit number at epoch: 53551

The dashed part of the orbit path shows where the satellite is in the earth's shadow,  

DLR